Weather History for Hugo, OK

Change the Weather History Date:

Friday, October 5, 2012

  Actual Average Record
Temperature  
Mean Temperature 62 °F -  
Max Temperature 71 °F 81 °F 82 °F (2014)
Min Temperature 53 °F 55 °F 50 °F (2014)
Degree Days  
Heating Degree Days 2    
Growing Degree Days 12 (Base 50)    
Moisture  
Dew Point 58 °F    
Average Humidity 81    
Maximum Humidity 97    
Minimum Humidity 67    
Precipitation  
Precipitation 0.00 in - - ()
Sea Level Pressure  
Sea Level Pressure 30.07 in    
Wind  
Wind Speed 7 mph ()    
Max Wind Speed 17 mph    
Max Gust Speed 24 mph    
Visibility 9.7 miles    
Events Rain    
Averages and records for this station are not official NWS values.
T = Trace of Precipitation, MM = Missing Value Source: Averaged Metar Reports

Daily Weather History Graph

Daily Weather History Graph

Search for Another Location

Airport:

Trip Planner

Search our weather history database for the weather conditions in past years. The results will help you decide how hot, cold, wet, or windy it might be!

Date:

Astronomy

Oct. 05, 2012 Rise Set
Actual Time 7:19 AM CDT 7:00 PM CDT
Civil Twilight 6:54 AM CDT 7:25 PM CDT
Nautical Twilight 6:25 AM CDT 7:54 PM CDT
Astronomical Twilight 5:56 AM CDT 8:23 PM CDT
Moon 10:37 PM CDT (10/5) 12:15 PM CDT (10/5)
Length of Visible Light 12h 30m
Length of Day
11h 40m
Waning Gibbous, 74% of the Moon is Illuminated
Oct 5
Waning Gibbous
Oct 8
Last Quarter
Oct 15
New
Oct 21
First Quarter
Oct 29
Full

Hourly Weather History & Observations

Time (CDT) Temp. Dew Point Humidity Pressure Visibility Wind Dir Wind Speed Gust Speed Precip Events Conditions
12:15 AM 70.9 °F 60.1 °F 69% 30.09 in 10.0 mi ESE 5.8 mph - N/A   Overcast
12:35 AM 71.2 °F 59.7 °F 67% 30.08 in 10.0 mi SE 5.8 mph - N/A   Overcast
12:55 AM 70.9 °F 60.1 °F 69% 30.08 in 10.0 mi SE 4.6 mph - N/A   Overcast
1:15 AM 70.7 °F 60.8 °F 71% 30.08 in 10.0 mi SE 3.5 mph - N/A   Overcast
1:35 AM 70.7 °F 61.2 °F 72% 30.09 in 10.0 mi Calm Calm - N/A   Overcast
1:55 AM 69.8 °F 60.8 °F 73% 30.09 in 10.0 mi NE 3.5 mph - N/A   Overcast
2:15 AM 69.6 °F 61.7 °F 76% 30.09 in 10.0 mi Calm Calm - N/A   Overcast
2:35 AM 70.0 °F 61.9 °F 75% 30.08 in 10.0 mi ESE 4.6 mph - N/A   Overcast
2:55 AM 70.0 °F 61.9 °F 75% 30.08 in 10.0 mi East 3.5 mph - N/A   Overcast
3:15 AM 68.5 °F 62.1 °F 80% 30.07 in 10.0 mi SE 4.6 mph - N/A   Scattered Clouds
3:35 AM 68.5 °F 62.6 °F 81% 30.06 in 10.0 mi ESE 3.5 mph - N/A   Mostly Cloudy
3:55 AM 68.5 °F 63.0 °F 82% 30.06 in 10.0 mi ESE 4.6 mph - N/A   Overcast
4:15 AM 68.9 °F 63.3 °F 82% 30.06 in 10.0 mi ESE 4.6 mph - N/A   Overcast
4:35 AM 68.9 °F 63.5 °F 83% 30.06 in 10.0 mi Calm Calm - N/A   Overcast
4:55 AM 68.2 °F 63.5 °F 85% 30.05 in 10.0 mi East 4.6 mph - N/A   Overcast
5:15 AM 67.6 °F 63.5 °F 87% 30.05 in 10.0 mi ESE 5.8 mph - N/A   Overcast
5:35 AM 67.5 °F 63.1 °F 86% 30.06 in 10.0 mi ESE 4.6 mph - N/A   Overcast
5:55 AM 67.6 °F 63.3 °F 86% 30.06 in 10.0 mi ESE 3.5 mph - N/A   Overcast
6:15 AM 67.5 °F 63.5 °F 87% 30.06 in 10.0 mi ESE 3.5 mph - N/A   Overcast
6:35 AM 68.0 °F 63.7 °F 86% 30.05 in 10.0 mi SE 4.6 mph - N/A   Overcast
6:55 AM 68.5 °F 64.0 °F 85% 30.05 in 10.0 mi Calm Calm - N/A   Overcast
7:15 AM 68.9 °F 64.4 °F 86% 30.05 in 10.0 mi SSE 3.5 mph - N/A   Overcast
7:35 AM 69.4 °F 64.8 °F 85% 30.05 in 10.0 mi SSE 4.6 mph - N/A   Overcast
7:55 AM 69.4 °F 64.9 °F 86% 30.05 in 10.0 mi SSE 4.6 mph - N/A   Overcast
8:15 AM 70.0 °F 65.3 °F 85% 30.05 in 10.0 mi South 6.9 mph - N/A   Overcast
8:35 AM 70.0 °F 65.3 °F 85% 30.05 in 10.0 mi South 5.8 mph - N/A   Overcast
8:55 AM 70.3 °F 65.8 °F 86% 30.05 in 10.0 mi South 5.8 mph - N/A   Overcast
9:15 AM 70.9 °F 66.2 °F 85% 30.05 in 10.0 mi SSW 9.2 mph - N/A   Overcast
9:35 AM 71.2 °F 66.7 °F 86% 30.05 in 10.0 mi SSW 6.9 mph - N/A   Overcast
9:55 AM 71.6 °F 67.1 °F 86% 30.06 in 10.0 mi WSW 6.9 mph - N/A   Overcast
10:15 AM 71.2 °F 67.5 °F 88% 30.06 in 10.0 mi North - - N/A   Overcast
10:35 AM 68.7 °F 63.7 °F 84% 30.06 in 10.0 mi WNW 10.4 mph - N/A   Overcast
10:55 AM 66.9 °F 62.8 °F 87% 30.06 in 10.0 mi WNW 8.1 mph - N/A   Overcast
11:35 AM 63.0 °F 62.1 °F 97% 30.07 in 3.0 mi WNW 10.4 mph - N/A Rain Light Rain
11:55 AM 61.7 °F 60.8 °F 97% 30.07 in 2.0 mi NW 9.2 mph - N/A   Drizzle
12:15 PM 61.7 °F 60.8 °F 97% 30.07 in 4.0 mi NW 8.1 mph - N/A   Overcast
12:35 PM 62.8 °F 61.0 °F 94% 30.06 in 10.0 mi NW 5.8 mph - N/A   Overcast
12:55 PM 64.8 °F 60.8 °F 87% 30.07 in 10.0 mi NW 9.2 mph - N/A   Overcast
1:35 PM 66.6 °F 59.4 °F 78% 30.06 in 10.0 mi NW 10.4 mph - N/A   Overcast
1:55 PM 67.5 °F 59.2 °F 75% 30.05 in 10.0 mi NW 10.4 mph - N/A   Overcast
2:15 PM 69.8 °F 59.7 °F 70% 30.05 in 10.0 mi NW 11.5 mph - N/A   Overcast
2:35 PM 68.9 °F 58.6 °F 70% 30.05 in 10.0 mi NNW 13.8 mph 18.4 mph N/A   Overcast
2:55 PM 65.5 °F 56.8 °F 74% 30.05 in 10.0 mi NNW 15.0 mph 20.7 mph N/A   Overcast
3:15 PM 64.2 °F 55.9 °F 74% 30.05 in 10.0 mi NNW 12.7 mph 18.4 mph N/A   Overcast
3:35 PM 64.0 °F 54.9 °F 72% 30.05 in 10.0 mi North 15.0 mph - N/A   Overcast
3:55 PM 65.3 °F 54.9 °F 69% 30.04 in 10.0 mi NNW 13.8 mph - N/A   Overcast
4:15 PM 64.2 °F 54.3 °F 70% 30.04 in 10.0 mi NNW 15.0 mph - N/A   Overcast
4:35 PM 63.3 °F 54.0 °F 71% 30.04 in 10.0 mi NNW 15.0 mph 18.4 mph N/A   Overcast
4:55 PM 62.6 °F 53.1 °F 71% 30.04 in 10.0 mi North 17.3 mph 23.0 mph N/A   Overcast
5:15 PM 60.3 °F 52.0 °F 74% 30.05 in 10.0 mi North 15.0 mph 23.0 mph N/A   Overcast
5:35 PM 59.2 °F 51.6 °F 76% 30.05 in 10.0 mi North 13.8 mph 24.2 mph N/A   Overcast
5:55 PM 57.9 °F 51.1 °F 78% 30.06 in 10.0 mi North 16.1 mph 23.0 mph N/A   Overcast
6:15 PM 57.2 °F 50.4 °F 78% 30.06 in 10.0 mi North 10.4 mph 21.9 mph N/A   Overcast
6:35 PM 56.3 °F 50.0 °F 79% 30.06 in 10.0 mi North 17.3 mph 23.0 mph N/A   Overcast
6:55 PM 55.9 °F 49.8 °F 80% 30.06 in 10.0 mi North 13.8 mph 19.6 mph N/A   Overcast
7:15 PM 55.8 °F 49.6 °F 80% 30.07 in 10.0 mi North 11.5 mph 19.6 mph N/A   Overcast
7:35 PM 55.4 °F 49.3 °F 80% 30.08 in 10.0 mi North 10.4 mph 16.1 mph N/A   Overcast
7:55 PM 54.9 °F 49.3 °F 81% 30.08 in 10.0 mi North 15.0 mph 20.7 mph N/A   Overcast
8:15 PM 54.5 °F 49.1 °F 82% 30.09 in 10.0 mi North 13.8 mph 23.0 mph N/A   Overcast
8:35 PM 54.5 °F 49.3 °F 83% 30.10 in 10.0 mi North 11.5 mph 17.3 mph N/A   Overcast
8:55 PM 54.1 °F 49.1 °F 83% 30.10 in 10.0 mi North 9.2 mph 17.3 mph N/A   Overcast
9:15 PM 54.1 °F 49.3 °F 84% 30.11 in 10.0 mi North 9.2 mph - N/A   Overcast
9:35 PM 54.1 °F 49.3 °F 84% 30.11 in 10.0 mi North 9.2 mph 19.6 mph N/A   Overcast
9:55 PM 54.1 °F 49.1 °F 83% 30.11 in 10.0 mi North 8.1 mph - N/A   Overcast
10:35 PM 54.1 °F 48.4 °F 81% 30.12 in 10.0 mi North 12.7 mph 17.3 mph N/A   Overcast
10:55 PM 54.1 °F 48.2 °F 80% 30.12 in 10.0 mi North 10.4 mph 17.3 mph N/A   Overcast
11:15 PM 54.1 °F 47.7 °F 79% 30.12 in 10.0 mi NNE 15.0 mph 20.7 mph N/A   Overcast
11:35 PM 54.0 °F 47.5 °F 79% 30.12 in 10.0 mi NNE 12.7 mph 19.6 mph N/A   Overcast
11:55 PM 53.6 °F 47.3 °F 79% 30.12 in 10.0 mi NNE 13.8 mph 23.0 mph N/A   Overcast